• In Netherlands
  • List of Countries
  • For 7 days
  • Water Temperature
  • Satellite Maps
  • Weather Map
  • Weather Widgets
  • user-avatar
    Login

    Hourly Weather Dinagepoor

    Today, 26 April, Wednesday

    Time Temperature Precipitation Wind Pressure Humidity
    00:00 +29°C° 0 mm 2 mps 749 mmHg 79%
    01:00 +29°C° 0 mm 2 mps 749 mmHg 79%
    02:00 +29°C° 0 mm 2 mps 749 mmHg 79%
    03:00 +28°C° 0 mm 2 mps 749 mmHg 79%
    04:00 +28°C° 0 mm 2 mps 749 mmHg 81%
    05:00 +27°C° 0 mm 2 mps 749 mmHg 82%
    06:00 +27°C° 0 mm 1 mps 749 mmHg 74%
    07:00 +29°C° 0 mm 1 mps 750 mmHg 64%
    08:00 +32°C° 0 mm 2 mps 750 mmHg 53%
    09:00 +35°C° 0 mm 2 mps 751 mmHg 42%
    10:00 +37°C° 0 mm 2 mps 751 mmHg 33%
    11:00 +39°C° 0 mm 3 mps 751 mmHg 24%
    12:00 +42°C° 0 mm 2 mps 751 mmHg 18%
    13:00 +42°C° 0 mm 2 mps 751 mmHg 16%
    14:00 +44°C° 0 mm 3 mps 750 mmHg 13%
    15:00 +44°C° 0 mm 3 mps 750 mmHg 11%
    16:00 +41°C° 0 mm 2 mps 750 mmHg 16%
    17:00 +39°C° 0 mm 2 mps 750 mmHg 21%
    18:00 +36°C° 0 mm 1 mps 749 mmHg 26%
    19:00 +35°C° 0 mm 2 mps 750 mmHg 35%
    20:00 +34°C° 0 mm 2 mps 750 mmHg 44%
    21:00 +31°C° 0 mm 3 mps 751 mmHg 53%
    22:00 +30°C° 0 mm 2 mps 751 mmHg 62%
    23:00 +30°C° 0 mm 2 mps 751 mmHg 71%

    Tomorrow, 27 April, Thursday

    Time Temperature Precipitation Wind Pressure Humidity
    00:00 +30°C° 0 mm 2 mps 751 mmHg 80%
    01:00 +29°C° 0.1 mm 2 mps 751 mmHg 82%
    02:00 +29°C° 0.1 mm 2 mps 751 mmHg 84%
    03:00 +29°C° 0.1 mm 2 mps 751 mmHg 86%
    04:00 +28°C° 0 mm 2 mps 751 mmHg 87%
    05:00 +28°C° 0 mm 2 mps 751 mmHg 88%
    06:00 +28°C° 0 mm 2 mps 751 mmHg 89%
    07:00 +29°C° 0 mm 2 mps 752 mmHg 82%
    08:00 +30°C° 0 mm 2 mps 753 mmHg 76%
    09:00 +32°C° 0 mm 2 mps 753 mmHg 69%
    10:00 +35°C° 0 mm 2 mps 753 mmHg 61%
    11:00 +37°C° 0 mm 2 mps 753 mmHg 52%
    12:00 +38°C° 0 mm 2 mps 753 mmHg 44%
    13:00 +40°C° 0 mm 2 mps 752 mmHg 36%
    14:00 +41°C° 0 mm 2 mps 751 mmHg 29%
    15:00 +42°C° 0 mm 2 mps 750 mmHg 22%
    16:00 +40°C° 0 mm 2 mps 750 mmHg 27%
    17:00 +38°C° 0 mm 2 mps 750 mmHg 33%
    18:00 +36°C° 0 mm 2 mps 750 mmHg 38%
    19:00 +35°C° 0 mm 2 mps 750 mmHg 50%
    20:00 +33°C° 0 mm 3 mps 751 mmHg 62%
    21:00 +31°C° 0 mm 3 mps 751 mmHg 74%
    22:00 +30°C° 0 mm 3 mps 751 mmHg 75%
    23:00 +30°C° 0 mm 3 mps 752 mmHg 76%

    Day after tomorrow, 28 April, Friday

    Time Temperature Precipitation Wind Pressure Humidity
    00:00 +29°C° 0 mm 3 mps 752 mmHg 77%
    01:00 +29°C° 0.1 mm 3 mps 752 mmHg 79%
    02:00 +28°C° 0.1 mm 2 mps 752 mmHg 81%
    03:00 +28°C° 0.1 mm 2 mps 751 mmHg 84%
    04:00 +28°C° 0.2 mm 2 mps 752 mmHg 85%
    05:00 +28°C° 0.2 mm 2 mps 752 mmHg 87%
    06:00 +28°C° 0.2 mm 2 mps 752 mmHg 89%
    07:00 +28°C° 0.1 mm 2 mps 753 mmHg 85%
    08:00 +29°C° 0.1 mm 3 mps 753 mmHg 82%
    09:00 +30°C° 0.1 mm 3 mps 754 mmHg 79%
    10:00 +31°C° 0 mm 3 mps 753 mmHg 75%
    11:00 +32°C° 0 mm 2 mps 753 mmHg 70%
    12:00 +34°C° 0 mm 2 mps 753 mmHg 66%
    13:00 +36°C° 0.1 mm 2 mps 752 mmHg 60%
    14:00 +37°C° 0.1 mm 3 mps 751 mmHg 55%
    15:00 +38°C° 0.1 mm 3 mps 750 mmHg 49%
    16:00 +36°C° 4.4 mm 3 mps 750 mmHg 59%
    17:00 +33°C° 4.4 mm 3 mps 749 mmHg 68%
    18:00 +30°C° 4.4 mm 3 mps 749 mmHg 78%
    19:00 +29°C° 0.2 mm 3 mps 750 mmHg 81%
    20:00 +28°C° 0.2 mm 3 mps 751 mmHg 84%
    21:00 +27°C° 0.2 mm 3 mps 752 mmHg 86%
    22:00 +27°C° 0.1 mm 2 mps 752 mmHg 84%
    23:00 +26°C° 0.1 mm 2 mps 752 mmHg 82%

    29 April, Saturday

    Time Temperature Precipitation Wind Pressure Humidity
    00:00 +26°C° 0.1 mm 1 mps 753 mmHg 80%
    01:00 +26°C° 0 mm 2 mps 753 mmHg 82%
    02:00 +25°C° 0 mm 2 mps 752 mmHg 84%
    03:00 +25°C° 0 mm 2 mps 752 mmHg 86%
    04:00 +25°C° 0 mm 2 mps 752 mmHg 88%
    05:00 +25°C° 0 mm 3 mps 753 mmHg 89%
    06:00 +25°C° 0 mm 3 mps 753 mmHg 90%
    07:00 +26°C° 0 mm 3 mps 754 mmHg 85%
    08:00 +27°C° 0 mm 3 mps 754 mmHg 80%
    09:00 +28°C° 0 mm 3 mps 755 mmHg 76%
    10:00 +29°C° 0 mm 3 mps 755 mmHg 73%
    11:00 +30°C° 0 mm 3 mps 754 mmHg 71%
    12:00 +31°C° 0 mm 3 mps 754 mmHg 69%
    13:00 +33°C° 0 mm 3 mps 753 mmHg 67%
    14:00 +33°C° 0 mm 3 mps 752 mmHg 65%
    15:00 +34°C° 0 mm 2 mps 751 mmHg 62%
    16:00 +34°C° 0 mm 2 mps 751 mmHg 65%
    17:00 +32°C° 0 mm 2 mps 751 mmHg 67%
    18:00 +32°C° 0 mm 2 mps 750 mmHg 70%
    19:00 +31°C° 0.5 mm 2 mps 751 mmHg 75%
    20:00 +29°C° 0.5 mm 2 mps 752 mmHg 80%
    21:00 +28°C° 0.5 mm 2 mps 753 mmHg 86%
    22:00 +28°C° 1 mm 2 mps 753 mmHg 87%
    23:00 +27°C° 1 mm 2 mps 753 mmHg 89%

    30 April, Sunday

    Time Temperature Precipitation Wind Pressure Humidity
    00:00 +27°C° 1 mm 2 mps 753 mmHg 90%
    01:00 +27°C° 0.1 mm 2 mps 753 mmHg 91%
    02:00 +27°C° 0.1 mm 2 mps 752 mmHg 93%
    03:00 +26°C° 0.1 mm 2 mps 752 mmHg 94%
    04:00 +26°C° 0.9 mm 2 mps 752 mmHg 94%
    05:00 +26°C° 0.9 mm 2 mps 753 mmHg 94%
    06:00 +26°C° 0.9 mm 2 mps 753 mmHg 94%
    07:00 +27°C° 0.2 mm 2 mps 754 mmHg 91%
    08:00 +28°C° 0.2 mm 3 mps 754 mmHg 87%
    09:00 +29°C° 0.2 mm 3 mps 755 mmHg 84%
    10:00 +30°C° 0.1 mm 3 mps 754 mmHg 81%
    11:00 +30°C° 0.1 mm 3 mps 754 mmHg 78%
    12:00 +31°C° 0.1 mm 3 mps 753 mmHg 76%
    13:00 +33°C° 0 mm 3 mps 753 mmHg 71%
    14:00 +34°C° 0 mm 3 mps 752 mmHg 65%
    15:00 +36°C° 0 mm 2 mps 751 mmHg 60%
    16:00 +35°C° 0 mm 3 mps 750 mmHg 64%
    17:00 +34°C° 0 mm 3 mps 750 mmHg 68%
    18:00 +33°C° 0 mm 3 mps 750 mmHg 71%
    19:00 +31°C° 1.8 mm 3 mps 751 mmHg 76%
    20:00 +30°C° 1.8 mm 2 mps 751 mmHg 82%
    21:00 +29°C° 1.8 mm 2 mps 752 mmHg 87%
    22:00 +28°C° 0 mm 2 mps 752 mmHg 88%
    23:00 +28°C° 0 mm 2 mps 752 mmHg 89%

    1 May, Monday

    Time Temperature Precipitation Wind Pressure Humidity
    00:00 +27°C° 0 mm 1 mps 752 mmHg 90%
    01:00 +27°C° 0.1 mm 2 mps 752 mmHg 90%
    02:00 +27°C° 0.1 mm 2 mps 752 mmHg 91%
    03:00 +27°C° 0.1 mm 2 mps 752 mmHg 92%
    04:00 +26°C° 0.1 mm 2 mps 753 mmHg 92%
    05:00 +26°C° 0.1 mm 2 mps 753 mmHg 93%
    06:00 +26°C° 0.1 mm 2 mps 754 mmHg 93%
    07:00 +28°C° 0.1 mm 2 mps 754 mmHg 87%
    08:00 +29°C° 0.1 mm 3 mps 755 mmHg 82%
    09:00 +31°C° 0.1 mm 3 mps 755 mmHg 76%
    10:00 +33°C° 0.5 mm 3 mps 755 mmHg 72%
    11:00 +34°C° 0.5 mm 2 mps 754 mmHg 69%
    12:00 +35°C° 0.5 mm 2 mps 754 mmHg 65%
    13:00 +35°C° 0.1 mm 2 mps 753 mmHg 61%
    14:00 +36°C° 0.1 mm 2 mps 752 mmHg 58%
    15:00 +37°C° 0.1 mm 2 mps 751 mmHg 55%
    16:00 +36°C° 0.1 mm 2 mps 751 mmHg 59%
    17:00 +35°C° 0.1 mm 2 mps 750 mmHg 62%
    18:00 +35°C° 0.1 mm 2 mps 750 mmHg 66%
    19:00 +32°C° 2.5 mm 2 mps 751 mmHg 73%
    20:00 +30°C° 2.5 mm 2 mps 752 mmHg 79%
    21:00 +29°C° 2.5 mm 1 mps 752 mmHg 85%
    22:00 +28°C° 0 mm 1 mps 752 mmHg 86%
    23:00 +28°C° 0 mm 1 mps 752 mmHg 86%
    Show more